Time,TemperatureF,DewpointF,PressureIn,WindDirection,WindDirectionDegrees,WindSpeedMPH,WindSpeedGustMPH,Humidity,HourlyPrecipIn,Conditions,Clouds,dailyrainin,SoftwareType,DateUTC
2013-08-02 00:00:00,56.4,54.1,29.88,SSE,155,0.0,0.0,92,0.00,,,0.00,WeatherCatV1.20B785,2013-08-02 04:00:00,
2013-08-02 00:01:00,56.2,53.9,29.88,SSE,155,0.0,0.0,92,0.00,,,0.00,WeatherCatV1.20B785,2013-08-02 04:01:00,
2013-08-02 00:02:00,56.1,53.8,29.88,SSE,155,0.0,0.0,92,0.00,,,0.00,WeatherCatV1.20B785,2013-08-02 04:02:00,
2013-08-02 00:03:00,56.0,53.7,29.88,SSE,155,0.0,0.0,92,0.00,,,0.00,WeatherCatV1.20B785,2013-08-02 04:03:00,
2013-08-02 00:05:00,56.0,53.7,29.88,SSE,155,0.0,0.0,92,0.00,,,0.00,WeatherCatV1.20B785,2013-08-02 04:05:00,
2013-08-02 00:08:00,55.7,53.4,29.88,SSE,155,0.0,0.0,92,0.00,,,0.00,WeatherCatV1.20B785,2013-08-02 04:08:00,
2013-08-02 00:10:00,55.8,53.5,29.88,SSE,155,0.0,0.0,92,0.00,,,0.00,WeatherCatV1.20B785,2013-08-02 04:10:00,
2013-08-02 00:13:00,55.4,53.1,29.88,SSE,155,0.0,0.0,92,0.00,,,0.00,WeatherCatV1.20B785,2013-08-02 04:13:00,
2013-08-02 00:15:00,55.5,53.2,29.88,SSE,155,0.0,0.0,92,0.00,,,0.00,WeatherCatV1.20B785,2013-08-02 04:15:00,
2013-08-02 00:17:00,55.3,53.0,29.88,SSE,155,0.0,0.0,92,0.00,,,0.00,WeatherCatV1.20B785,2013-08-02 04:17:00,
2013-08-02 00:20:00,55.2,52.9,29.88,SSE,155,0.0,0.0,92,0.00,,,0.00,WeatherCatV1.20B785,2013-08-02 04:20:00,
2013-08-02 00:22:00,55.1,52.8,29.88,SSE,155,0.0,0.0,92,0.00,,,0.00,WeatherCatV1.20B785,2013-08-02 04:22:00,
2013-08-02 00:25:00,55.3,53.0,29.88,SSE,155,0.0,0.0,92,0.00,,,0.00,WeatherCatV1.20B785,2013-08-02 04:25:00,
2013-08-02 00:27:00,55.4,53.1,29.88,SSE,155,0.0,0.0,92,0.00,,,0.00,WeatherCatV1.20B785,2013-08-02 04:27:00,
2013-08-02 00:30:00,55.4,53.1,29.88,SSE,155,0.0,0.0,92,0.00,,,0.00,WeatherCatV1.20B785,2013-08-02 04:30:00,
2013-08-02 00:32:00,55.4,53.1,29.88,SSE,155,0.0,0.0,92,0.00,,,0.00,WeatherCatV1.20B785,2013-08-02 04:32:00,
2013-08-02 00:35:00,55.3,53.0,29.88,SSE,155,0.0,0.0,92,0.00,,,0.00,WeatherCatV1.20B785,2013-08-02 04:35:00,
2013-08-02 00:38:00,55.3,53.0,29.88,SSE,155,0.0,0.0,92,0.00,,,0.00,WeatherCatV1.20B785,2013-08-02 04:38:00,
2013-08-02 00:40:00,55.2,52.9,29.88,SSE,155,0.0,0.0,92,0.00,,,0.00,WeatherCatV1.20B785,2013-08-02 04:40:00,
2013-08-02 00:43:00,55.2,52.9,29.88,SSE,155,0.0,0.0,92,0.00,,,0.00,WeatherCatV1.20B785,2013-08-02 04:43:00,
2013-08-02 00:45:00,55.2,52.9,29.88,SSE,155,0.0,0.0,92,0.00,,,0.00,WeatherCatV1.20B785,2013-08-02 04:45:00,
2013-08-02 00:48:00,55.1,52.8,29.88,SSE,152,0.0,0.0,92,0.00,,,0.00,WeatherCatV1.20B785,2013-08-02 04:48:00,
2013-08-02 00:50:00,55.3,53.0,29.88,SSE,154,0.0,0.0,92,0.00,,,0.00,WeatherCatV1.20B785,2013-08-02 04:50:00,
2013-08-02 00:53:00,55.3,53.0,29.88,SSE,153,0.0,0.0,92,0.00,,,0.00,WeatherCatV1.20B785,2013-08-02 04:53:00,
2013-08-02 00:55:00,55.3,53.0,29.88,SSE,154,0.0,0.0,92,0.00,,,0.00,WeatherCatV1.20B785,2013-08-02 04:55:00,
2013-08-02 00:58:00,55.3,53.0,29.88,SSE,154,0.0,0.0,92,0.00,,,0.00,WeatherCatV1.20B785,2013-08-02 04:58:00,
2013-08-02 01:00:00,55.3,53.0,29.88,SSE,153,0.0,0.0,92,0.00,,,0.00,WeatherCatV1.20B785,2013-08-02 05:00:00,
2013-08-02 01:03:00,55.3,53.0,29.88,SSE,153,0.0,0.0,92,0.00,,,0.00,WeatherCatV1.20B785,2013-08-02 05:03:00,
2013-08-02 01:05:00,55.2,52.9,29.88,SSE,153,0.0,0.0,92,0.00,,,0.00,WeatherCatV1.20B785,2013-08-02 05:05:00,
2013-08-02 01:08:00,55.2,52.9,29.88,SSE,154,0.0,0.0,92,0.00,,,0.00,WeatherCatV1.20B785,2013-08-02 05:08:00,
2013-08-02 01:10:00,55.1,52.8,29.88,SSE,153,0.0,0.0,92,0.00,,,0.00,WeatherCatV1.20B785,2013-08-02 05:10:00,
2013-08-02 01:13:00,55.1,52.8,29.88,SSE,153,0.0,0.0,92,0.00,,,0.00,WeatherCatV1.20B785,2013-08-02 05:13:00,
2013-08-02 01:15:00,55.0,52.7,29.88,SSE,153,0.0,0.0,92,0.00,,,0.00,WeatherCatV1.20B785,2013-08-02 05:15:00,
2013-08-02 01:18:00,54.9,52.6,29.88,SSE,153,0.0,0.0,92,0.00,,,0.00,WeatherCatV1.20B785,2013-08-02 05:18:00,
2013-08-02 01:20:00,54.9,52.6,29.88,SSE,153,0.0,0.0,92,0.00,,,0.00,WeatherCatV1.20B785,2013-08-02 05:20:00,
2013-08-02 01:23:00,54.9,52.6,29.88,SSE,153,0.0,0.0,92,0.00,,,0.00,WeatherCatV1.20B785,2013-08-02 05:23:00,
2013-08-02 01:25:00,54.8,52.5,29.87,SSE,153,0.0,0.0,92,0.00,,,0.00,WeatherCatV1.20B785,2013-08-02 05:25:00,
2013-08-02 01:28:00,54.8,52.5,29.87,SSE,153,0.0,0.0,92,0.00,,,0.00,WeatherCatV1.20B785,2013-08-02 05:28:00,
2013-08-02 01:30:00,54.7,52.4,29.87,SSE,153,0.0,0.0,92,0.00,,,0.00,WeatherCatV1.20B785,2013-08-02 05:30:00,
2013-08-02 01:33:00,54.7,52.4,29.87,SSE,153,0.0,0.0,92,0.00,,,0.00,WeatherCatV1.20B785,2013-08-02 05:33:00,
2013-08-02 01:35:00,54.6,52.3,29.87,SSE,153,0.0,0.0,92,0.00,,,0.00,WeatherCatV1.20B785,2013-08-02 05:35:00,
2013-08-02 01:38:00,54.6,52.3,29.87,SSE,153,0.0,0.0,92,0.00,,,0.00,WeatherCatV1.20B785,2013-08-02 05:38:00,
2013-08-02 01:40:00,54.5,52.2,29.87,SSE,153,0.0,0.0,92,0.00,,,0.00,WeatherCatV1.20B785,2013-08-02 05:40:00,
2013-08-02 01:43:00,54.4,52.1,29.87,SSE,153,0.0,0.0,92,0.00,,,0.00,WeatherCatV1.20B785,2013-08-02 05:43:00,
2013-08-02 01:45:00,54.4,52.1,29.87,SSE,153,0.0,0.0,92,0.00,,,0.00,WeatherCatV1.20B785,2013-08-02 05:45:00,
2013-08-02 01:48:00,54.3,52.0,29.87,SSE,154,0.0,0.0,92,0.00,,,0.00,WeatherCatV1.20B785,2013-08-02 05:48:00,
2013-08-02 01:50:00,54.3,52.0,29.87,SSE,153,0.0,0.0,92,0.00,,,0.00,WeatherCatV1.20B785,2013-08-02 05:50:00,
2013-08-02 01:53:00,54.4,52.1,29.87,SSE,153,0.0,0.0,92,0.00,,,0.00,WeatherCatV1.20B785,2013-08-02 05:53:00,
2013-08-02 01:55:00,54.4,52.1,29.87,SSE,153,0.0,0.0,92,0.00,,,0.00,WeatherCatV1.20B785,2013-08-02 05:55:00,
2013-08-02 01:58:00,54.3,52.0,29.86,SSE,153,0.0,0.0,92,0.00,,,0.00,WeatherCatV1.20B785,2013-08-02 05:58:00,
2013-08-02 02:00:00,54.3,52.0,29.86,SSE,153,0.0,0.0,92,0.00,,,0.00,WeatherCatV1.20B785,2013-08-02 06:00:00,
2013-08-02 02:03:00,54.2,51.9,29.87,SSE,154,0.0,0.0,92,0.00,,,0.00,WeatherCatV1.20B785,2013-08-02 06:03:00,
2013-08-02 02:05:00,54.1,51.8,29.86,SSE,153,0.0,0.0,92,0.00,,,0.00,WeatherCatV1.20B785,2013-08-02 06:05:00,
2013-08-02 02:08:00,53.8,51.5,29.87,SSE,153,0.0,0.0,92,0.00,,,0.00,WeatherCatV1.20B785,2013-08-02 06:08:00,
2013-08-02 02:10:00,53.7,51.4,29.87,SSE,153,0.0,0.0,92,0.00,,,0.00,WeatherCatV1.20B785,2013-08-02 06:10:00,
2013-08-02 02:13:00,53.7,51.4,29.87,SSE,153,0.0,0.0,92,0.00,,,0.00,WeatherCatV1.20B785,2013-08-02 06:13:00,
2013-08-02 02:15:00,53.7,51.4,29.87,SSE,153,0.0,0.0,92,0.00,,,0.00,WeatherCatV1.20B785,2013-08-02 06:15:00,
2013-08-02 02:18:00,53.6,51.3,29.86,SSE,154,0.0,0.0,92,0.00,,,0.00,WeatherCatV1.20B785,2013-08-02 06:18:00,
2013-08-02 02:20:00,53.6,51.3,29.87,SSE,153,0.0,0.0,92,0.00,,,0.00,WeatherCatV1.20B785,2013-08-02 06:20:00,
2013-08-02 02:23:00,53.5,51.2,29.86,SSE,153,0.0,0.0,92,0.00,,,0.00,WeatherCatV1.20B785,2013-08-02 06:23:00,
2013-08-02 02:25:00,53.5,51.2,29.86,SSE,153,0.0,0.0,92,0.00,,,0.00,WeatherCatV1.20B785,2013-08-02 06:25:00,
2013-08-02 02:28:00,53.3,51.0,29.87,SSE,153,0.0,0.0,92,0.00,,,0.00,WeatherCatV1.20B785,2013-08-02 06:28:00,
2013-08-02 02:30:00,53.3,51.0,29.87,SSE,153,0.0,0.0,92,0.00,,,0.00,WeatherCatV1.20B785,2013-08-02 06:30:00,
2013-08-02 02:33:00,53.2,50.9,29.87,SSE,154,0.0,0.0,92,0.00,,,0.00,WeatherCatV1.20B785,2013-08-02 06:33:00,
2013-08-02 02:35:00,53.1,50.8,29.87,SSE,153,0.0,0.0,92,0.00,,,0.00,WeatherCatV1.20B785,2013-08-02 06:35:00,
2013-08-02 02:38:00,52.9,50.6,29.87,SSE,153,0.0,0.0,92,0.00,,,0.00,WeatherCatV1.20B785,2013-08-02 06:38:00,
2013-08-02 02:40:00,52.7,50.4,29.87,SSE,153,0.0,0.0,92,0.00,,,0.00,WeatherCatV1.20B785,2013-08-02 06:40:00,
2013-08-02 02:43:00,52.8,50.5,29.86,SSE,153,0.0,0.0,92,0.00,,,0.00,WeatherCatV1.20B785,2013-08-02 06:43:00,
2013-08-02 02:45:00,52.9,50.6,29.87,SSE,153,0.0,0.0,92,0.00,,,0.00,WeatherCatV1.20B785,2013-08-02 06:45:00,
2013-08-02 02:48:00,52.9,50.9,29.87,SSE,153,0.0,0.0,93,0.00,,,0.00,WeatherCatV1.20B785,2013-08-02 06:48:00,
2013-08-02 02:50:00,52.9,50.9,29.87,SSE,153,0.0,0.0,93,0.00,,,0.00,WeatherCatV1.20B785,2013-08-02 06:50:00,
2013-08-02 02:53:00,52.8,50.8,29.87,SSE,153,0.0,0.0,93,0.00,,,0.00,WeatherCatV1.20B785,2013-08-02 06:53:00,
2013-08-02 02:55:00,52.8,50.8,29.87,SSE,153,0.0,0.0,93,0.00,,,0.00,WeatherCatV1.20B785,2013-08-02 06:55:00,
2013-08-02 02:58:00,52.8,50.8,29.87,SSE,153,0.0,0.0,93,0.00,,,0.00,WeatherCatV1.20B785,2013-08-02 06:58:00,
2013-08-02 03:00:00,52.8,50.8,29.87,SSE,153,0.0,0.0,93,0.00,,,0.00,WeatherCatV1.20B785,2013-08-02 07:00:00,
2013-08-02 03:03:00,52.8,50.8,29.87,SSE,154,0.0,0.0,93,0.00,,,0.00,WeatherCatV1.20B785,2013-08-02 07:03:00,
2013-08-02 03:05:00,52.8,50.8,29.87,SSE,153,0.0,0.0,93,0.00,,,0.00,WeatherCatV1.20B785,2013-08-02 07:05:00,
2013-08-02 03:08:00,52.8,50.8,29.87,SSE,153,0.0,0.0,93,0.00,,,0.00,WeatherCatV1.20B785,2013-08-02 07:08:00,
2013-08-02 03:10:00,52.7,50.7,29.87,SSE,153,0.0,0.0,93,0.00,,,0.00,WeatherCatV1.20B785,2013-08-02 07:10:00,
2013-08-02 03:13:00,52.7,50.7,29.87,SSE,153,0.0,0.0,93,0.00,,,0.00,WeatherCatV1.20B785,2013-08-02 07:13:00,
2013-08-02 03:15:00,52.5,50.2,29.87,SSE,153,0.0,0.0,92,0.00,,,0.00,WeatherCatV1.20B785,2013-08-02 07:15:00,
2013-08-02 03:18:00,52.5,50.2,29.87,SSE,154,0.0,0.0,92,0.00,,,0.00,WeatherCatV1.20B785,2013-08-02 07:18:00,
2013-08-02 03:20:00,52.5,50.2,29.87,SSE,153,0.0,0.0,92,0.00,,,0.00,WeatherCatV1.20B785,2013-08-02 07:20:00,
2013-08-02 03:23:00,52.5,50.2,29.87,SSE,153,0.0,0.0,92,0.00,,,0.00,WeatherCatV1.20B785,2013-08-02 07:23:00,
2013-08-02 03:25:00,52.4,50.1,29.87,SSE,153,0.0,0.0,92,0.00,,,0.00,WeatherCatV1.20B785,2013-08-02 07:25:00,
2013-08-02 03:28:00,52.4,50.1,29.87,SSE,153,0.0,0.0,92,0.00,,,0.00,WeatherCatV1.20B785,2013-08-02 07:28:00,
2013-08-02 03:30:00,52.4,50.1,29.87,SSE,153,0.0,0.0,92,0.00,,,0.00,WeatherCatV1.20B785,2013-08-02 07:30:00,
2013-08-02 03:33:00,52.3,50.3,29.87,SSE,153,0.0,0.0,93,0.00,,,0.00,WeatherCatV1.20B785,2013-08-02 07:33:00,
2013-08-02 03:35:00,52.4,50.4,29.87,SSE,153,0.0,0.0,93,0.00,,,0.00,WeatherCatV1.20B785,2013-08-02 07:35:00,
2013-08-02 03:38:00,52.5,50.5,29.87,SSE,154,0.0,0.0,93,0.00,,,0.00,WeatherCatV1.20B785,2013-08-02 07:38:00,
2013-08-02 03:40:00,52.5,50.5,29.87,SSE,153,0.0,0.0,93,0.00,,,0.00,WeatherCatV1.20B785,2013-08-02 07:40:00,
2013-08-02 03:43:00,52.5,50.5,29.87,SSE,153,0.0,0.0,93,0.00,,,0.00,WeatherCatV1.20B785,2013-08-02 07:43:00,
2013-08-02 03:45:00,52.4,50.4,29.87,SSE,153,0.0,0.0,93,0.00,,,0.00,WeatherCatV1.20B785,2013-08-02 07:45:00,
2013-08-02 03:48:00,52.4,50.4,29.87,SSE,153,0.0,0.0,93,0.00,,,0.00,WeatherCatV1.20B785,2013-08-02 07:48:00,
2013-08-02 03:50:00,52.3,50.3,29.87,SSE,153,0.0,0.0,93,0.00,,,0.00,WeatherCatV1.20B785,2013-08-02 07:50:00,
2013-08-02 03:53:00,52.3,50.3,29.86,SSE,153,0.0,0.0,93,0.00,,,0.00,WeatherCatV1.20B785,2013-08-02 07:53:00,
2013-08-02 03:55:00,52.3,50.3,29.86,SSE,153,0.0,0.0,93,0.00,,,0.00,WeatherCatV1.20B785,2013-08-02 07:55:00,
2013-08-02 03:58:00,52.2,50.2,29.86,SSE,153,0.0,0.0,93,0.00,,,0.00,WeatherCatV1.20B785,2013-08-02 07:58:00,
2013-08-02 04:00:00,52.1,50.1,29.86,SSE,153,0.0,0.0,93,0.00,,,0.00,WeatherCatV1.20B785,2013-08-02 08:00:00,
2013-08-02 04:03:00,52.0,50.0,29.86,SSE,153,0.0,0.0,93,0.00,,,0.00,WeatherCatV1.20B785,2013-08-02 08:03:00,
2013-08-02 04:05:00,52.0,50.0,29.86,SSE,153,0.0,0.0,93,0.00,,,0.00,WeatherCatV1.20B785,2013-08-02 08:05:00,
2013-08-02 04:08:00,52.0,50.0,29.86,SSE,153,0.0,0.0,93,0.00,,,0.00,WeatherCatV1.20B785,2013-08-02 08:08:00,
2013-08-02 04:10:00,51.9,50.0,29.86,SSE,153,0.0,0.0,93,0.00,,,0.00,WeatherCatV1.20B785,2013-08-02 08:10:00,
2013-08-02 04:13:00,52.0,50.0,29.87,SSE,154,0.0,0.0,93,0.00,,,0.00,WeatherCatV1.20B785,2013-08-02 08:13:00,
2013-08-02 04:15:00,52.0,50.0,29.86,SSE,153,0.0,0.0,93,0.00,,,0.00,WeatherCatV1.20B785,2013-08-02 08:15:00,
2013-08-02 04:18:00,52.0,50.0,29.86,SSE,153,0.0,0.0,93,0.00,,,0.00,WeatherCatV1.20B785,2013-08-02 08:18:00,
2013-08-02 04:20:00,51.9,50.0,29.86,SSE,153,0.0,0.0,93,0.00,,,0.00,WeatherCatV1.20B785,2013-08-02 08:20:00,
2013-08-02 04:23:00,51.9,49.9,29.86,SSE,153,0.0,0.0,93,0.00,,,0.00,WeatherCatV1.20B785,2013-08-02 08:23:00,
2013-08-02 04:25:00,51.8,49.8,29.86,SSE,153,0.0,0.0,93,0.00,,,0.00,WeatherCatV1.20B785,2013-08-02 08:25:00,
2013-08-02 04:28:00,51.7,49.7,29.86,SSE,154,0.0,0.0,93,0.00,,,0.00,WeatherCatV1.20B785,2013-08-02 08:28:00,
2013-08-02 04:30:00,51.6,49.6,29.86,SSE,153,0.0,0.0,93,0.00,,,0.00,WeatherCatV1.20B785,2013-08-02 08:30:00,
2013-08-02 04:33:00,51.4,49.4,29.86,SSE,153,0.0,0.0,93,0.00,,,0.00,WeatherCatV1.20B785,2013-08-02 08:33:00,
2013-08-02 04:35:00,51.3,49.3,29.86,SSE,153,0.0,0.0,93,0.00,,,0.00,WeatherCatV1.20B785,2013-08-02 08:35:00,
2013-08-02 04:38:00,51.3,49.3,29.86,SSE,154,0.0,0.0,93,0.00,,,0.00,WeatherCatV1.20B785,2013-08-02 08:38:00,
2013-08-02 04:40:00,51.4,49.4,29.86,SSE,153,0.0,0.0,93,0.00,,,0.00,WeatherCatV1.20B785,2013-08-02 08:40:00,
2013-08-02 04:43:00,51.3,49.3,29.86,SSE,154,0.0,0.0,93,0.00,,,0.00,WeatherCatV1.20B785,2013-08-02 08:43:00,
2013-08-02 04:45:00,51.2,49.2,29.86,SSE,153,0.0,0.0,93,0.00,,,0.00,WeatherCatV1.20B785,2013-08-02 08:45:00,
2013-08-02 04:48:00,51.3,49.3,29.86,SSE,154,0.0,0.0,93,0.00,,,0.00,WeatherCatV1.20B785,2013-08-02 08:48:00,
2013-08-02 04:50:00,51.2,49.2,29.86,SSE,153,0.0,0.0,93,0.00,,,0.00,WeatherCatV1.20B785,2013-08-02 08:50:00,
2013-08-02 04:53:00,51.2,49.2,29.86,SSE,153,0.0,0.0,93,0.00,,,0.00,WeatherCatV1.20B785,2013-08-02 08:53:00,
2013-08-02 04:55:00,51.2,49.2,29.86,SSE,153,0.0,0.0,93,0.00,,,0.00,WeatherCatV1.20B785,2013-08-02 08:55:00,
2013-08-02 04:58:00,51.2,49.2,29.86,SSE,153,0.0,0.0,93,0.00,,,0.00,WeatherCatV1.20B785,2013-08-02 08:58:00,
2013-08-02 05:00:00,51.2,49.2,29.86,SSE,153,0.0,0.0,93,0.00,,,0.00,WeatherCatV1.20B785,2013-08-02 09:00:00,
2013-08-02 05:03:00,51.2,49.2,29.86,SSE,153,0.0,0.0,93,0.00,,,0.00,WeatherCatV1.20B785,2013-08-02 09:03:00,
2013-08-02 05:05:00,51.2,49.2,29.86,SSE,153,0.0,0.0,93,0.00,,,0.00,WeatherCatV1.20B785,2013-08-02 09:05:00,
2013-08-02 05:08:00,51.2,49.2,29.86,SSE,153,0.0,0.0,93,0.00,,,0.00,WeatherCatV1.20B785,2013-08-02 09:08:00,
2013-08-02 05:10:00,51.2,49.2,29.86,SSE,153,0.0,0.0,93,0.00,,,0.00,WeatherCatV1.20B785,2013-08-02 09:10:00,
2013-08-02 05:13:00,51.0,49.0,29.86,SSE,153,0.0,0.0,93,0.00,,,0.00,WeatherCatV1.20B785,2013-08-02 09:13:00,
2013-08-02 05:15:00,51.1,49.2,29.86,SSE,153,0.0,0.0,93,0.00,,,0.00,WeatherCatV1.20B785,2013-08-02 09:15:00,
2013-08-02 05:18:00,51.4,49.4,29.86,SSE,153,0.0,0.0,93,0.00,,,0.00,WeatherCatV1.20B785,2013-08-02 09:18:00,
2013-08-02 05:20:00,51.5,49.5,29.87,SSE,153,0.0,0.0,93,0.00,,,0.00,WeatherCatV1.20B785,2013-08-02 09:20:00,
2013-08-02 05:23:00,51.4,49.4,29.87,SSE,154,0.0,0.0,93,0.00,,,0.00,WeatherCatV1.20B785,2013-08-02 09:23:00,
2013-08-02 05:25:00,51.4,49.4,29.87,SSE,153,0.0,0.0,93,0.00,,,0.00,WeatherCatV1.20B785,2013-08-02 09:25:00,
2013-08-02 05:28:00,51.3,49.3,29.87,SSE,153,0.0,0.0,93,0.00,,,0.00,WeatherCatV1.20B785,2013-08-02 09:28:00,
2013-08-02 05:30:00,51.2,49.2,29.87,SSE,153,0.0,0.0,93,0.00,,,0.00,WeatherCatV1.20B785,2013-08-02 09:30:00,
2013-08-02 05:33:00,51.2,49.2,29.87,SSE,154,0.0,0.0,93,0.00,,,0.00,WeatherCatV1.20B785,2013-08-02 09:33:00,
2013-08-02 05:35:00,51.2,49.2,29.87,SSE,153,0.0,0.0,93,0.00,,,0.00,WeatherCatV1.20B785,2013-08-02 09:35:00,
2013-08-02 05:39:00,51.2,49.2,29.88,SSE,153,0.0,0.0,93,0.00,,,0.00,WeatherCatV1.20B785,2013-08-02 09:39:00,
2013-08-02 05:40:00,51.2,49.2,29.88,SSE,153,0.0,0.0,93,0.00,,,0.00,WeatherCatV1.20B785,2013-08-02 09:40:00,
2013-08-02 05:44:00,51.2,49.2,29.88,SSE,153,0.0,0.0,93,0.00,,,0.00,WeatherCatV1.20B785,2013-08-02 09:44:00,
2013-08-02 05:45:00,51.3,49.3,29.88,SSE,153,0.0,0.0,93,0.00,,,0.00,WeatherCatV1.20B785,2013-08-02 09:45:00,
2013-08-02 05:49:00,51.3,49.3,29.88,SSE,153,0.0,0.0,93,0.00,,,0.00,WeatherCatV1.20B785,2013-08-02 09:49:00,
2013-08-02 05:50:00,51.3,49.3,29.88,SSE,153,0.0,0.0,93,0.00,,,0.00,WeatherCatV1.20B785,2013-08-02 09:50:00,
2013-08-02 05:54:00,51.2,49.2,29.88,SSE,153,0.0,0.0,93,0.00,,,0.00,WeatherCatV1.20B785,2013-08-02 09:54:00,
2013-08-02 05:55:00,51.1,49.2,29.88,SSE,153,0.0,0.0,93,0.00,,,0.00,WeatherCatV1.20B785,2013-08-02 09:55:00,
2013-08-02 05:59:00,50.9,49.0,29.89,SSE,153,0.0,0.0,93,0.00,,,0.00,WeatherCatV1.20B785,2013-08-02 09:59:00,
2013-08-02 06:00:00,50.9,49.0,29.89,SSE,153,0.0,0.0,93,0.00,,,0.00,WeatherCatV1.20B785,2013-08-02 10:00:00,
2013-08-02 06:04:00,50.8,48.8,29.89,SSE,153,0.0,0.0,93,0.00,,,0.00,WeatherCatV1.20B785,2013-08-02 10:04:00,
2013-08-02 06:05:00,50.8,48.8,29.89,SSE,153,0.0,0.0,93,0.00,,,0.00,WeatherCatV1.20B785,2013-08-02 10:05:00,
2013-08-02 06:09:00,51.0,49.0,29.89,SSE,154,0.0,0.0,93,0.00,,,0.00,WeatherCatV1.20B785,2013-08-02 10:09:00,
2013-08-02 06:10:00,50.9,49.0,29.89,SSE,153,0.0,0.0,93,0.00,,,0.00,WeatherCatV1.20B785,2013-08-02 10:10:00,
2013-08-02 06:14:00,51.1,49.2,29.89,SSE,153,0.0,0.0,93,0.00,,,0.00,WeatherCatV1.20B785,2013-08-02 10:14:00,
2013-08-02 06:15:00,51.1,49.2,29.89,SSE,153,0.0,0.0,93,0.00,,,0.00,WeatherCatV1.20B785,2013-08-02 10:15:00,
2013-08-02 06:19:00,51.4,49.4,29.90,SSE,154,0.0,0.0,93,0.00,,,0.00,WeatherCatV1.20B785,2013-08-02 10:19:00,
2013-08-02 06:20:00,51.4,49.4,29.90,SSE,154,0.0,0.0,93,0.00,,,0.00,WeatherCatV1.20B785,2013-08-02 10:20:00,
2013-08-02 06:24:00,51.8,49.8,29.90,SSE,154,0.0,0.0,93,0.00,,,0.00,WeatherCatV1.20B785,2013-08-02 10:24:00,
2013-08-02 06:25:00,51.8,49.8,29.90,SSE,153,0.0,0.0,93,0.00,,,0.00,WeatherCatV1.20B785,2013-08-02 10:25:00,
2013-08-02 06:29:00,52.0,50.0,29.90,SSE,153,0.0,0.0,93,0.00,,,0.00,WeatherCatV1.20B785,2013-08-02 10:29:00,
2013-08-02 06:30:00,52.1,50.1,29.90,SSE,154,0.0,0.0,93,0.00,,,0.00,WeatherCatV1.20B785,2013-08-02 10:30:00,
2013-08-02 06:34:00,52.2,50.2,29.90,SSE,153,0.0,0.0,93,0.00,,,0.00,WeatherCatV1.20B785,2013-08-02 10:34:00,
2013-08-02 06:35:00,52.2,50.2,29.90,SSE,153,0.0,0.0,93,0.00,,,0.00,WeatherCatV1.20B785,2013-08-02 10:35:00,
2013-08-02 06:39:00,52.3,50.3,29.90,SSE,153,0.0,0.0,93,0.00,,,0.00,WeatherCatV1.20B785,2013-08-02 10:39:00,
2013-08-02 06:40:00,52.3,50.3,29.90,SSE,153,0.0,0.0,93,0.00,,,0.00,WeatherCatV1.20B785,2013-08-02 10:40:00,
2013-08-02 06:44:00,52.4,50.4,29.90,SSE,153,0.0,0.0,93,0.00,,,0.00,WeatherCatV1.20B785,2013-08-02 10:44:00,
2013-08-02 06:45:00,52.4,50.4,29.90,SSE,154,0.0,0.0,93,0.00,,,0.00,WeatherCatV1.20B785,2013-08-02 10:45:00,
2013-08-02 06:49:00,52.5,50.5,29.90,SSE,153,0.0,0.0,93,0.00,,,0.00,WeatherCatV1.20B785,2013-08-02 10:49:00,
2013-08-02 06:50:00,52.5,50.5,29.90,SSE,153,0.0,0.0,93,0.00,,,0.00,WeatherCatV1.20B785,2013-08-02 10:50:00,
2013-08-02 06:54:00,52.8,50.8,29.90,SSE,153,0.0,0.0,93,0.00,,,0.00,WeatherCatV1.20B785,2013-08-02 10:54:00,
2013-08-02 06:55:00,52.8,50.8,29.90,SSE,154,0.0,0.0,93,0.00,,,0.00,WeatherCatV1.20B785,2013-08-02 10:55:00,
2013-08-02 06:59:00,52.9,50.9,29.90,SSE,153,0.0,0.0,93,0.00,,,0.00,WeatherCatV1.20B785,2013-08-02 10:59:00,
2013-08-02 07:00:00,52.9,50.9,29.90,SSE,154,0.0,0.0,93,0.00,,,0.00,WeatherCatV1.20B785,2013-08-02 11:00:00,
2013-08-02 07:04:00,53.0,51.0,29.90,SSE,153,0.0,0.0,93,0.00,,,0.00,WeatherCatV1.20B785,2013-08-02 11:04:00,
2013-08-02 07:05:00,53.0,51.0,29.90,SSE,153,0.0,0.0,93,0.00,,,0.00,WeatherCatV1.20B785,2013-08-02 11:05:00,
2013-08-02 07:09:00,53.3,51.3,29.90,SSE,153,0.0,0.0,93,0.00,,,0.00,WeatherCatV1.20B785,2013-08-02 11:09:00,
2013-08-02 07:10:00,53.4,51.4,29.90,SSE,154,0.0,0.0,93,0.00,,,0.00,WeatherCatV1.20B785,2013-08-02 11:10:00,
2013-08-02 07:14:00,53.8,51.8,29.90,SSE,153,0.0,0.0,93,0.00,,,0.00,WeatherCatV1.20B785,2013-08-02 11:14:00,
2013-08-02 07:15:00,53.9,51.9,29.90,SSE,154,0.0,0.0,93,0.00,,,0.00,WeatherCatV1.20B785,2013-08-02 11:15:00,
2013-08-02 07:19:00,54.3,52.3,29.91,SSE,155,0.0,0.0,93,0.00,,,0.00,WeatherCatV1.20B785,2013-08-02 11:19:00,
2013-08-02 07:20:00,54.4,52.4,29.91,SSE,154,0.0,0.0,93,0.00,,,0.00,WeatherCatV1.20B785,2013-08-02 11:20:00,
2013-08-02 07:24:00,55.0,53.0,29.90,SSE,153,0.0,0.0,93,0.00,,,0.00,WeatherCatV1.20B785,2013-08-02 11:24:00,
2013-08-02 07:25:00,55.1,53.1,29.90,SSE,153,0.0,0.0,93,0.00,,,0.00,WeatherCatV1.20B785,2013-08-02 11:25:00,
2013-08-02 07:29:00,55.5,53.5,29.90,SSE,153,0.0,0.0,93,0.00,,,0.00,WeatherCatV1.20B785,2013-08-02 11:29:00,
2013-08-02 07:30:00,55.6,53.6,29.90,SSE,153,0.0,0.0,93,0.00,,,0.00,WeatherCatV1.20B785,2013-08-02 11:30:00,
2013-08-02 07:34:00,56.5,54.5,29.91,SSE,155,0.0,0.0,93,0.00,,,0.00,WeatherCatV1.20B785,2013-08-02 11:34:00,
2013-08-02 07:35:00,56.5,54.5,29.91,SSE,154,0.0,0.0,93,0.00,,,0.00,WeatherCatV1.20B785,2013-08-02 11:35:00,
2013-08-02 07:40:00,57.2,55.2,29.91,SSE,155,0.0,0.0,93,0.00,,,0.00,WeatherCatV1.20B785,2013-08-02 11:40:00,
2013-08-02 07:45:00,57.5,55.5,29.91,SE,140,0.0,0.0,93,0.00,,,0.00,WeatherCatV1.20B785,2013-08-02 11:45:00,
2013-08-02 07:46:00,57.7,55.7,29.91,SE,129,0.0,1.0,93,0.00,,,0.00,WeatherCatV1.20B785,2013-08-02 11:46:00,
2013-08-02 07:50:00,57.8,55.8,29.91,East,101,0.0,0.0,93,0.00,,,0.00,WeatherCatV1.20B785,2013-08-02 11:50:00,
2013-08-02 07:51:00,57.9,55.9,29.91,North,349,0.0,0.0,93,0.00,,,0.00,WeatherCatV1.20B785,2013-08-02 11:51:00,
2013-08-02 07:55:00,58.3,56.3,29.91,NNE,24,0.0,0.0,93,0.00,,,0.00,WeatherCatV1.20B785,2013-08-02 11:55:00,
2013-08-02 07:56:00,58.7,56.7,29.91,North,350,0.0,0.0,93,0.00,,,0.00,WeatherCatV1.20B785,2013-08-02 11:56:00,
2013-08-02 08:00:00,59.7,57.7,29.91,North,358,0.0,0.0,93,0.00,,,0.00,WeatherCatV1.20B785,2013-08-02 12:00:00,
2013-08-02 08:02:00,59.9,57.9,29.91,North,350,0.0,0.0,93,0.00,,,0.00,WeatherCatV1.20B785,2013-08-02 12:02:00,
2013-08-02 08:05:00,60.1,58.1,29.91,NNE,12,0.0,0.0,93,0.00,,,0.00,WeatherCatV1.20B785,2013-08-02 12:05:00,
2013-08-02 08:07:00,60.2,58.2,29.91,NE,43,0.0,0.0,93,0.00,,,0.00,WeatherCatV1.20B785,2013-08-02 12:07:00,
2013-08-02 08:10:00,60.7,58.7,29.91,NE,36,0.0,0.0,93,0.00,,,0.00,WeatherCatV1.20B785,2013-08-02 12:10:00,
2013-08-02 08:12:00,60.8,58.8,29.91,NE,48,0.0,0.0,93,0.00,,,0.00,WeatherCatV1.20B785,2013-08-02 12:12:00,
2013-08-02 08:15:00,61.3,59.2,29.91,NE,45,0.0,0.0,93,0.00,,,0.00,WeatherCatV1.20B785,2013-08-02 12:15:00,
2013-08-02 08:17:00,61.5,59.5,29.91,NE,48,0.0,1.0,93,0.00,,,0.00,WeatherCatV1.20B785,2013-08-02 12:17:00,
2013-08-02 08:20:00,62.0,60.0,29.91,NE,48,0.0,0.0,93,0.00,,,0.00,WeatherCatV1.20B785,2013-08-02 12:20:00,
2013-08-02 08:22:00,62.2,60.2,29.91,NE,49,0.0,1.0,93,0.00,,,0.00,WeatherCatV1.20B785,2013-08-02 12:22:00,
2013-08-02 08:25:00,62.4,60.3,29.90,NE,52,0.0,1.0,93,0.00,,,0.00,WeatherCatV1.20B785,2013-08-02 12:25:00,
2013-08-02 08:27:00,62.5,60.1,29.91,ENE,64,0.0,1.0,92,0.00,,,0.00,WeatherCatV1.20B785,2013-08-02 12:27:00,
2013-08-02 08:30:00,62.6,60.2,29.91,NE,49,0.0,1.0,92,0.00,,,0.00,WeatherCatV1.20B785,2013-08-02 12:30:00,
2013-08-02 08:32:00,62.8,60.4,29.91,NNE,30,0.0,0.0,92,0.00,,,0.00,WeatherCatV1.20B785,2013-08-02 12:32:00,
2013-08-02 08:35:00,62.9,60.5,29.91,NE,34,0.0,1.0,92,0.00,,,0.00,WeatherCatV1.20B785,2013-08-02 12:35:00,
2013-08-02 08:37:00,63.2,60.8,29.90,NNE,27,0.0,0.0,92,0.00,,,0.00,WeatherCatV1.20B785,2013-08-02 12:37:00,
2013-08-02 08:40:00,63.6,61.2,29.90,NNE,31,0.0,1.0,92,0.00,,,0.00,WeatherCatV1.20B785,2013-08-02 12:40:00,
2013-08-02 08:42:00,63.9,61.2,29.90,ENE,60,0.0,3.0,91,0.00,,,0.00,WeatherCatV1.20B785,2013-08-02 12:42:00,
2013-08-02 08:45:00,64.4,61.7,29.91,NE,43,0.0,2.0,91,0.00,,,0.00,WeatherCatV1.20B785,2013-08-02 12:45:00,
2013-08-02 08:47:00,64.6,61.9,29.91,ENE,67,1.0,2.0,91,0.00,,,0.00,WeatherCatV1.20B785,2013-08-02 12:47:00,
2013-08-02 08:50:00,65.0,62.0,29.90,NE,49,1.0,2.0,90,0.00,,,0.00,WeatherCatV1.20B785,2013-08-02 12:50:00,
2013-08-02 08:52:00,65.4,62.4,29.91,ENE,74,1.0,1.0,90,0.00,,,0.00,WeatherCatV1.20B785,2013-08-02 12:52:00,
2013-08-02 08:55:00,65.9,62.9,29.90,ENE,65,1.0,1.0,90,0.00,,,0.00,WeatherCatV1.20B785,2013-08-02 12:55:00,
2013-08-02 08:57:00,66.4,63.0,29.90,ENE,76,0.0,1.0,89,0.00,,,0.00,WeatherCatV1.20B785,2013-08-02 12:57:00,
2013-08-02 09:00:00,66.9,63.5,29.90,ESE,117,1.0,0.0,89,0.00,,,0.00,WeatherCatV1.20B785,2013-08-02 13:00:00,
2013-08-02 09:02:00,67.4,63.4,29.90,WSW,258,1.0,2.0,87,0.00,,,0.00,WeatherCatV1.20B785,2013-08-02 13:02:00,
2013-08-02 09:05:00,67.7,63.0,29.90,SSW,210,1.0,0.0,85,0.00,,,0.00,WeatherCatV1.20B785,2013-08-02 13:05:00,
2013-08-02 09:07:00,67.9,63.2,29.90,WSW,239,0.0,2.0,85,0.00,,,0.00,WeatherCatV1.20B785,2013-08-02 13:07:00,
2013-08-02 09:10:00,68.1,63.1,29.90,WSW,246,1.0,2.0,84,0.00,,,0.00,WeatherCatV1.20B785,2013-08-02 13:10:00,
2013-08-02 09:12:00,68.1,62.7,29.90,WSW,246,1.0,3.0,83,0.00,,,0.00,WeatherCatV1.20B785,2013-08-02 13:12:00,
2013-08-02 09:15:00,68.1,62.4,29.90,WSW,251,1.0,3.0,82,0.00,,,0.00,WeatherCatV1.20B785,2013-08-02 13:15:00,
2013-08-02 09:17:00,68.1,63.1,29.90,WNW,287,1.0,3.0,84,0.00,,,0.00,WeatherCatV1.20B785,2013-08-02 13:17:00,
2013-08-02 09:20:00,68.3,63.3,29.90,West,267,1.0,2.0,84,0.00,,,0.00,WeatherCatV1.20B785,2013-08-02 13:20:00,
2013-08-02 09:22:00,68.4,63.0,29.90,West,269,2.0,3.0,83,0.00,,,0.00,WeatherCatV1.20B785,2013-08-02 13:22:00,
2013-08-02 09:25:00,68.5,63.5,29.90,West,269,1.0,3.0,84,0.00,,,0.00,WeatherCatV1.20B785,2013-08-02 13:25:00,
2013-08-02 09:27:00,68.7,63.7,29.90,WSW,256,1.0,2.0,84,0.00,,,0.00,WeatherCatV1.20B785,2013-08-02 13:27:00,
2013-08-02 09:30:00,69.0,63.6,29.90,West,271,1.0,1.0,83,0.00,,,0.00,WeatherCatV1.20B785,2013-08-02 13:30:00,
2013-08-02 09:32:00,69.1,63.4,29.90,SW,225,0.0,1.0,82,0.00,,,0.00,WeatherCatV1.20B785,2013-08-02 13:32:00,
2013-08-02 09:35:00,69.5,63.8,29.90,WSW,250,1.0,3.0,82,0.00,,,0.00,WeatherCatV1.20B785,2013-08-02 13:35:00,
2013-08-02 09:38:00,69.5,63.4,29.90,NNW,327,1.0,2.0,81,0.00,,,0.00,WeatherCatV1.20B785,2013-08-02 13:38:00,
2013-08-02 09:40:00,69.6,63.5,29.90,West,279,1.0,5.0,81,0.00,,,0.00,WeatherCatV1.20B785,2013-08-02 13:40:00,
2013-08-02 09:43:00,69.3,62.8,29.90,SW,231,2.0,8.0,80,0.00,,,0.00,WeatherCatV1.20B785,2013-08-02 13:43:00,
2013-08-02 09:45:00,69.1,63.4,29.90,West,271,2.0,3.0,82,0.00,,,0.00,WeatherCatV1.20B785,2013-08-02 13:45:00,
2013-08-02 09:48:00,69.0,62.6,29.90,West,276,1.0,8.0,80,0.00,,,0.00,WeatherCatV1.20B785,2013-08-02 13:48:00,
2013-08-02 09:50:00,69.1,63.0,29.90,West,277,2.0,5.0,81,0.00,,,0.00,WeatherCatV1.20B785,2013-08-02 13:50:00,
2013-08-02 09:53:00,69.0,62.9,29.90,West,276,3.0,4.0,81,0.00,,,0.00,WeatherCatV1.20B785,2013-08-02 13:53:00,
2013-08-02 09:55:00,69.0,62.6,29.90,West,273,2.0,5.0,80,0.00,,,0.00,WeatherCatV1.20B785,2013-08-02 13:55:00,
2013-08-02 09:58:00,69.0,62.9,29.90,West,270,0.0,4.0,81,0.00,,,0.00,WeatherCatV1.20B785,2013-08-02 13:58:00,
2013-08-02 10:00:00,69.4,64.0,29.90,West,270,2.0,2.0,83,0.00,,,0.00,WeatherCatV1.20B785,2013-08-02 14:00:00,
2013-08-02 10:03:00,69.7,63.2,29.90,NE,34,1.0,4.0,80,0.00,,,0.00,WeatherCatV1.20B785,2013-08-02 14:03:00,
2013-08-02 10:05:00,70.0,63.2,29.90,WNW,296,1.0,4.0,79,0.00,,,0.00,WeatherCatV1.20B785,2013-08-02 14:05:00,
2013-08-02 10:08:00,70.1,63.3,29.90,South,190,2.0,3.0,79,0.00,,,0.00,WeatherCatV1.20B785,2013-08-02 14:08:00,
2013-08-02 10:10:00,70.2,63.4,29.90,WSW,257,1.0,4.0,79,0.00,,,0.00,WeatherCatV1.20B785,2013-08-02 14:10:00,
2013-08-02 10:13:00,70.6,64.1,29.90,WSW,250,1.0,1.0,80,0.00,,,0.00,WeatherCatV1.20B785,2013-08-02 14:13:00,
2013-08-02 10:15:00,70.8,63.6,29.90,WSW,241,1.0,3.0,78,0.00,,,0.00,WeatherCatV1.20B785,2013-08-02 14:15:00,
2013-08-02 10:18:00,71.1,63.5,29.90,SSW,197,4.0,6.0,77,0.00,,,0.00,WeatherCatV1.20B785,2013-08-02 14:18:00,
2013-08-02 10:20:00,71.3,63.7,29.90,SW,227,1.0,4.0,77,0.00,,,0.00,WeatherCatV1.20B785,2013-08-02 14:20:00,
2013-08-02 10:23:00,71.5,62.8,29.89,West,264,1.0,8.0,74,0.00,,,0.00,WeatherCatV1.20B785,2013-08-02 14:23:00,
2013-08-02 10:25:00,71.6,62.8,29.89,WSW,257,2.0,3.0,74,0.00,,,0.00,WeatherCatV1.20B785,2013-08-02 14:25:00,
2013-08-02 10:28:00,72.0,62.5,29.90,SSE,168,4.0,6.0,72,0.00,,,0.00,WeatherCatV1.20B785,2013-08-02 14:28:00,
2013-08-02 10:30:00,72.2,63.5,29.90,SW,234,2.0,6.0,74,0.00,,,0.00,WeatherCatV1.20B785,2013-08-02 14:30:00,
2013-08-02 10:33:00,72.5,63.3,29.90,West,267,5.0,5.0,73,0.00,,,0.00,WeatherCatV1.20B785,2013-08-02 14:33:00,
2013-08-02 10:35:00,72.3,61.5,29.90,WSW,254,2.0,6.0,69,0.00,,,0.00,WeatherCatV1.20B785,2013-08-02 14:35:00,
2013-08-02 10:38:00,71.7,61.4,29.91,SW,235,2.0,5.0,70,0.00,,,0.00,WeatherCatV1.20B785,2013-08-02 14:38:00,
2013-08-02 10:40:00,71.6,61.7,29.91,West,259,3.0,4.0,71,0.00,,,0.00,WeatherCatV1.20B785,2013-08-02 14:40:00,
2013-08-02 10:43:00,71.6,61.7,29.91,West,281,3.0,6.0,71,0.00,,,0.00,WeatherCatV1.20B785,2013-08-02 14:43:00,
2013-08-02 10:45:00,71.5,61.2,29.91,West,265,3.0,6.0,70,0.00,,,0.00,WeatherCatV1.20B785,2013-08-02 14:45:00,
2013-08-02 10:49:00,71.3,61.0,29.91,WNW,295,2.0,5.0,70,0.00,,,0.00,WeatherCatV1.20B785,2013-08-02 14:49:00,
2013-08-02 10:50:00,71.3,61.0,29.91,West,262,2.0,5.0,70,0.00,,,0.00,WeatherCatV1.20B785,2013-08-02 14:50:00,
2013-08-02 10:54:00,71.4,61.5,29.91,SW,235,1.0,5.0,71,0.00,,,0.00,WeatherCatV1.20B785,2013-08-02 14:54:00,
2013-08-02 10:55:00,71.4,61.5,29.91,West,264,2.0,4.0,71,0.00,,,0.00,WeatherCatV1.20B785,2013-08-02 14:55:00,
2013-08-02 10:59:00,71.4,59.9,29.91,WSW,251,1.0,5.0,67,0.00,,,0.00,WeatherCatV1.20B785,2013-08-02 14:59:00,
2013-08-02 11:00:00,71.4,59.9,29.91,WSW,258,2.0,3.0,67,0.00,,,0.00,WeatherCatV1.20B785,2013-08-02 15:00:00,
2013-08-02 11:04:00,71.0,60.7,29.91,WSW,248,1.0,4.0,70,0.00,,,0.00,WeatherCatV1.20B785,2013-08-02 15:04:00,
2013-08-02 11:05:00,71.0,61.1,29.91,WSW,255,2.0,2.0,71,0.00,,,0.00,WeatherCatV1.20B785,2013-08-02 15:05:00,
2013-08-02 11:09:00,71.3,61.0,29.91,West,273,2.0,5.0,70,0.00,,,0.00,WeatherCatV1.20B785,2013-08-02 15:09:00,
2013-08-02 11:10:00,71.4,61.1,29.91,West,260,2.0,4.0,70,0.00,,,0.00,WeatherCatV1.20B785,2013-08-02 15:10:00,
2013-08-02 11:14:00,71.5,60.0,29.91,SW,231,4.0,6.0,67,0.00,,,0.00,WeatherCatV1.20B785,2013-08-02 15:14:00,
2013-08-02 11:15:00,71.5,60.4,29.91,WSW,246,2.0,8.0,68,0.00,,,0.00,WeatherCatV1.20B785,2013-08-02 15:15:00,
2013-08-02 11:19:00,71.2,60.1,29.91,West,276,1.0,7.0,68,0.00,,,0.00,WeatherCatV1.20B785,2013-08-02 15:19:00,
2013-08-02 11:20:00,71.1,59.1,29.91,WSW,256,3.0,6.0,66,0.00,,,0.00,WeatherCatV1.20B785,2013-08-02 15:20:00,
2013-08-02 11:24:00,70.8,60.1,29.92,WNW,290,5.0,7.0,69,0.00,,,0.00,WeatherCatV1.20B785,2013-08-02 15:24:00,
2013-08-02 11:25:00,70.9,59.8,29.92,West,272,3.0,7.0,68,0.00,,,0.00,WeatherCatV1.20B785,2013-08-02 15:25:00,
2013-08-02 11:29:00,71.5,61.6,29.92,NW,316,0.0,4.0,71,0.00,,,0.00,WeatherCatV1.20B785,2013-08-02 15:29:00,
2013-08-02 11:30:00,71.9,61.6,29.91,WNW,290,2.0,2.0,70,0.00,,,0.00,WeatherCatV1.20B785,2013-08-02 15:30:00,
2013-08-02 11:34:00,72.4,62.0,29.91,WSW,246,1.0,2.0,70,0.00,,,0.00,WeatherCatV1.20B785,2013-08-02 15:34:00,
2013-08-02 11:35:00,72.6,61.8,29.91,West,262,1.0,5.0,69,0.00,,,0.00,WeatherCatV1.20B785,2013-08-02 15:35:00,
2013-08-02 11:39:00,72.5,59.6,29.91,WNW,295,4.0,7.0,64,0.00,,,0.00,WeatherCatV1.20B785,2013-08-02 15:39:00,
2013-08-02 11:40:00,72.5,60.5,29.91,West,279,2.0,8.0,66,0.00,,,0.00,WeatherCatV1.20B785,2013-08-02 15:40:00,
2013-08-02 11:44:00,72.5,60.5,29.91,NW,315,4.0,9.0,66,0.00,,,0.00,WeatherCatV1.20B785,2013-08-02 15:44:00,
2013-08-02 11:45:00,72.6,60.6,29.91,NW,318,3.0,8.0,66,0.00,,,0.00,WeatherCatV1.20B785,2013-08-02 15:45:00,
2013-08-02 11:49:00,72.4,59.5,29.91,ESE,108,2.0,5.0,64,0.00,,,0.00,WeatherCatV1.20B785,2013-08-02 15:49:00,
2013-08-02 11:50:00,72.4,59.5,29.91,NNW,328,3.0,5.0,64,0.00,,,0.00,WeatherCatV1.20B785,2013-08-02 15:50:00,
2013-08-02 11:54:00,72.5,59.2,29.91,WSW,257,1.0,4.0,63,0.00,,,0.00,WeatherCatV1.20B785,2013-08-02 15:54:00,
2013-08-02 11:55:00,72.5,59.6,29.91,NW,319,2.0,5.0,64,0.00,,,0.00,WeatherCatV1.20B785,2013-08-02 15:55:00,
2013-08-02 11:59:00,72.3,59.4,29.91,SW,222,2.0,5.0,64,0.00,,,0.00,WeatherCatV1.20B785,2013-08-02 15:59:00,
2013-08-02 12:00:00,72.3,59.4,29.91,NNW,336,2.0,5.0,64,0.00,,,0.00,WeatherCatV1.20B785,2013-08-02 16:00:00,
2013-08-02 12:04:00,72.4,59.5,29.91,SW,229,0.0,4.0,64,0.00,,,0.00,WeatherCatV1.20B785,2013-08-02 16:04:00,
2013-08-02 12:05:00,72.5,60.0,29.91,West,276,2.0,2.0,65,0.00,,,0.00,WeatherCatV1.20B785,2013-08-02 16:05:00,
2013-08-02 12:09:00,73.5,62.3,29.91,NNW,330,2.0,3.0,68,0.00,,,0.00,WeatherCatV1.20B785,2013-08-02 16:09:00,
2013-08-02 12:10:00,73.6,60.7,29.91,NW,310,2.0,4.0,64,0.00,,,0.00,WeatherCatV1.20B785,2013-08-02 16:10:00,
2013-08-02 12:14:00,73.9,58.2,29.90,WNW,288,5.0,7.0,58,0.00,,,0.00,WeatherCatV1.20B785,2013-08-02 16:14:00,
2013-08-02 12:15:00,73.8,58.1,29.90,West,273,2.0,5.0,58,0.00,,,0.00,WeatherCatV1.20B785,2013-08-02 16:15:00,
2013-08-02 12:19:00,73.7,60.8,29.90,NW,321,1.0,8.0,64,0.00,,,0.00,WeatherCatV1.20B785,2013-08-02 16:19:00,
2013-08-02 12:20:00,73.8,60.8,29.90,West,276,3.0,7.0,64,0.00,,,0.00,WeatherCatV1.20B785,2013-08-02 16:20:00,
2013-08-02 12:24:00,73.6,59.3,29.90,ENE,65,6.0,7.0,61,0.00,,,0.00,WeatherCatV1.20B785,2013-08-02 16:24:00,
2013-08-02 12:25:00,73.6,59.3,29.90,WNW,300,2.0,7.0,61,0.00,,,0.00,WeatherCatV1.20B785,2013-08-02 16:25:00,
2013-08-02 12:29:00,73.5,60.6,29.90,WSW,239,2.0,5.0,64,0.00,,,0.00,WeatherCatV1.20B785,2013-08-02 16:29:00,
2013-08-02 12:30:00,73.5,60.1,29.90,WNW,297,2.0,4.0,63,0.00,,,0.00,WeatherCatV1.20B785,2013-08-02 16:30:00,
2013-08-02 12:35:00,73.3,59.9,29.91,West,259,1.0,8.0,63,0.00,,,0.00,WeatherCatV1.20B785,2013-08-02 16:35:00,
2013-08-02 12:40:00,73.2,61.1,29.91,WSW,257,3.0,5.0,66,0.00,,,0.00,WeatherCatV1.20B785,2013-08-02 16:40:00,
2013-08-02 12:45:00,73.2,59.8,29.92,SW,217,3.0,9.0,63,0.00,,,0.00,WeatherCatV1.20B785,2013-08-02 16:45:00,
2013-08-02 12:50:00,73.6,62.0,29.91,NNW,336,1.0,3.0,67,0.00,,,0.00,WeatherCatV1.20B785,2013-08-02 16:50:00,
2013-08-02 12:55:00,73.2,58.5,29.92,West,260,2.0,9.0,60,0.00,,,0.00,WeatherCatV1.20B785,2013-08-02 16:55:00,
2013-08-02 13:00:00,72.2,59.3,29.92,West,277,4.0,5.0,64,0.00,,,0.00,WeatherCatV1.20B785,2013-08-02 17:00:00,
2013-08-02 13:05:00,71.8,59.4,29.92,West,263,3.0,5.0,65,0.00,,,0.00,WeatherCatV1.20B785,2013-08-02 17:05:00,
2013-08-02 13:10:00,72.2,58.4,29.92,North,352,1.0,6.0,62,0.00,,,0.00,WeatherCatV1.20B785,2013-08-02 17:10:00,
2013-08-02 13:15:00,72.8,59.0,29.91,West,278,1.0,5.0,62,0.00,,,0.00,WeatherCatV1.20B785,2013-08-02 17:15:00,
2013-08-02 13:20:00,72.6,58.4,29.91,WSW,249,2.0,2.0,61,0.00,,,0.00,WeatherCatV1.20B785,2013-08-02 17:20:00,
2013-08-02 13:25:00,72.5,60.0,29.91,SW,225,1.0,5.0,65,0.00,,,0.00,WeatherCatV1.20B785,2013-08-02 17:25:00,
2013-08-02 13:30:00,72.6,61.0,29.91,WNW,287,0.0,4.0,67,0.00,,,0.00,WeatherCatV1.20B785,2013-08-02 17:30:00,
2013-08-02 13:35:00,72.6,58.8,29.91,West,262,1.0,3.0,62,0.00,,,0.00,WeatherCatV1.20B785,2013-08-02 17:35:00,
2013-08-02 13:40:00,72.4,58.2,29.91,WNW,291,2.0,6.0,61,0.00,,,0.00,WeatherCatV1.20B785,2013-08-02 17:40:00,
2013-08-02 13:45:00,72.5,60.9,29.91,West,264,2.0,7.0,67,0.00,,,0.00,WeatherCatV1.20B785,2013-08-02 17:45:00,
2013-08-02 13:50:00,72.5,60.5,29.91,WSW,245,3.0,5.0,66,0.00,,,0.00,WeatherCatV1.20B785,2013-08-02 17:50:00,
2013-08-02 13:55:00,72.5,58.7,29.91,WNW,290,2.0,10.0,62,0.00,,,0.00,WeatherCatV1.20B785,2013-08-02 17:55:00,
2013-08-02 14:00:00,72.5,58.7,29.92,South,183,3.0,9.0,62,0.00,,,0.00,WeatherCatV1.20B785,2013-08-02 18:00:00,
2013-08-02 14:05:00,72.5,59.6,29.92,NE,51,1.0,11.0,64,0.00,,,0.00,WeatherCatV1.20B785,2013-08-02 18:05:00,
2013-08-02 14:10:00,72.5,58.7,29.92,WSW,251,2.0,9.0,62,0.00,,,0.00,WeatherCatV1.20B785,2013-08-02 18:10:00,
2013-08-02 14:15:00,71.9,59.5,29.92,West,269,2.0,5.0,65,0.00,,,0.00,WeatherCatV1.20B785,2013-08-02 18:15:00,
2013-08-02 14:20:00,71.6,58.3,29.91,West,281,1.0,6.0,63,0.00,,,0.00,WeatherCatV1.20B785,2013-08-02 18:20:00,
2013-08-02 14:25:00,71.9,59.0,29.91,WSW,253,2.0,4.0,64,0.00,,,0.00,WeatherCatV1.20B785,2013-08-02 18:25:00,
2013-08-02 14:30:00,72.3,60.3,29.91,WNW,300,2.0,4.0,66,0.00,,,0.00,WeatherCatV1.20B785,2013-08-02 18:30:00,
2013-08-02 14:35:00,72.6,59.3,29.91,WSW,249,0.0,3.0,63,0.00,,,0.00,WeatherCatV1.20B785,2013-08-02 18:35:00,
2013-08-02 14:40:00,73.3,60.4,29.91,West,281,1.0,3.0,64,0.00,,,0.00,WeatherCatV1.20B785,2013-08-02 18:40:00,
2013-08-02 14:45:00,73.8,59.5,29.91,WSW,253,3.0,5.0,61,0.00,,,0.00,WeatherCatV1.20B785,2013-08-02 18:45:00,
2013-08-02 14:50:00,73.7,59.8,29.91,West,270,1.0,4.0,62,0.00,,,0.00,WeatherCatV1.20B785,2013-08-02 18:50:00,
2013-08-02 14:55:00,74.4,60.5,29.91,West,269,2.0,8.0,62,0.00,,,0.00,WeatherCatV1.20B785,2013-08-02 18:55:00,
2013-08-02 15:00:00,74.5,61.5,29.91,West,281,2.0,2.0,64,0.00,,,0.00,WeatherCatV1.20B785,2013-08-02 19:00:00,
2013-08-02 15:05:00,75.0,61.5,29.91,WNW,295,4.0,6.0,63,0.00,,,0.00,WeatherCatV1.20B785,2013-08-02 19:05:00,
2013-08-02 15:10:00,74.8,62.2,29.91,WSW,242,2.0,7.0,65,0.00,,,0.00,WeatherCatV1.20B785,2013-08-02 19:10:00,
2013-08-02 15:15:00,74.2,59.4,29.91,West,260,5.0,9.0,60,0.00,,,0.00,WeatherCatV1.20B785,2013-08-02 19:15:00,
2013-08-02 15:20:00,73.9,60.0,29.91,SSE,156,6.0,6.0,62,0.00,,,0.00,WeatherCatV1.20B785,2013-08-02 19:20:00,
2013-08-02 15:25:00,74.1,60.2,29.91,WNW,293,1.0,4.0,62,0.00,,,0.00,WeatherCatV1.20B785,2013-08-02 19:25:00,
2013-08-02 15:30:00,74.3,60.4,29.90,SW,231,4.0,8.0,62,0.00,,,0.00,WeatherCatV1.20B785,2013-08-02 19:30:00,
2013-08-02 15:35:00,73.7,59.4,29.90,SSW,205,1.0,9.0,61,0.00,,,0.00,WeatherCatV1.20B785,2013-08-02 19:35:00,
2013-08-02 15:40:00,74.0,60.1,29.90,WSW,249,4.0,10.0,62,0.00,,,0.00,WeatherCatV1.20B785,2013-08-02 19:40:00,
2013-08-02 15:45:00,74.1,60.7,29.90,SSW,195,4.0,4.0,63,0.00,,,0.00,WeatherCatV1.20B785,2013-08-02 19:45:00,
2013-08-02 15:50:00,74.5,61.9,29.90,WSW,246,2.0,11.0,65,0.00,,,0.00,WeatherCatV1.20B785,2013-08-02 19:50:00,
2013-08-02 15:55:00,74.4,60.1,29.91,WNW,291,6.0,9.0,61,0.00,,,0.00,WeatherCatV1.20B785,2013-08-02 19:55:00,
2013-08-02 16:00:00,74.1,60.7,29.90,South,169,5.0,12.0,63,0.00,,,0.00,WeatherCatV1.20B785,2013-08-02 20:00:00,
2013-08-02 16:05:00,73.7,60.8,29.90,WSW,242,2.0,6.0,64,0.00,,,0.00,WeatherCatV1.20B785,2013-08-02 20:05:00,
2013-08-02 16:10:00,73.8,60.0,29.90,SSW,205,1.0,4.0,62,0.00,,,0.00,WeatherCatV1.20B785,2013-08-02 20:10:00,
2013-08-02 16:15:00,73.7,59.4,29.90,WSW,247,3.0,6.0,61,0.00,,,0.00,WeatherCatV1.20B785,2013-08-02 20:15:00,
2013-08-02 16:17:00,73.7,59.8,29.90,West,272,0.0,8.0,62,0.00,,,0.00,WeatherCatV1.20B785,2013-08-02 20:17:00,
2013-08-02 16:20:00,73.6,60.2,29.90,WSW,252,3.0,6.0,63,0.00,,,0.00,WeatherCatV1.20B785,2013-08-02 20:20:00,
2013-08-02 16:22:00,73.2,59.4,29.90,WSW,250,1.0,5.0,62,0.00,,,0.00,WeatherCatV1.20B785,2013-08-02 20:22:00,
2013-08-02 16:25:00,72.8,59.9,29.90,WSW,246,2.0,2.0,64,0.00,,,0.00,WeatherCatV1.20B785,2013-08-02 20:25:00,
2013-08-02 16:27:00,72.7,60.2,29.90,SW,214,3.0,3.0,65,0.00,,,0.00,WeatherCatV1.20B785,2013-08-02 20:27:00,
2013-08-02 16:30:00,72.7,59.8,29.90,WSW,240,2.0,2.0,64,0.00,,,0.00,WeatherCatV1.20B785,2013-08-02 20:30:00,
2013-08-02 16:32:00,72.8,60.3,29.90,SSW,210,1.0,4.0,65,0.00,,,0.00,WeatherCatV1.20B785,2013-08-02 20:32:00,
2013-08-02 16:35:00,73.1,60.2,29.90,SW,231,2.0,7.0,64,0.00,,,0.00,WeatherCatV1.20B785,2013-08-02 20:35:00,
2013-08-02 16:37:00,73.3,59.9,29.90,South,191,6.0,10.0,63,0.00,,,0.00,WeatherCatV1.20B785,2013-08-02 20:37:00,
2013-08-02 16:40:00,73.5,60.6,29.89,WSW,239,3.0,3.0,64,0.00,,,0.00,WeatherCatV1.20B785,2013-08-02 20:40:00,
2013-08-02 16:42:00,73.5,59.7,29.89,WSW,246,1.0,4.0,62,0.00,,,0.00,WeatherCatV1.20B785,2013-08-02 20:42:00,
2013-08-02 16:45:00,73.7,59.8,29.89,SW,218,2.0,2.0,62,0.00,,,0.00,WeatherCatV1.20B785,2013-08-02 20:45:00,
2013-08-02 16:47:00,73.8,60.8,29.89,SSW,200,3.0,6.0,64,0.00,,,0.00,WeatherCatV1.20B785,2013-08-02 20:47:00,
2013-08-02 16:50:00,73.6,58.8,29.89,SSW,210,3.0,12.0,60,0.00,,,0.00,WeatherCatV1.20B785,2013-08-02 20:50:00,
2013-08-02 16:52:00,73.5,60.1,29.89,SW,224,2.0,7.0,63,0.00,,,0.00,WeatherCatV1.20B785,2013-08-02 20:52:00,
2013-08-02 16:55:00,73.4,59.6,29.89,SW,216,4.0,7.0,62,0.00,,,0.00,WeatherCatV1.20B785,2013-08-02 20:55:00,
2013-08-02 16:57:00,73.5,61.0,29.89,SW,219,3.0,4.0,65,0.00,,,0.00,WeatherCatV1.20B785,2013-08-02 20:57:00,
2013-08-02 17:00:00,73.8,61.3,29.89,SW,214,3.0,3.0,65,0.00,,,0.00,WeatherCatV1.20B785,2013-08-02 21:00:00,
2013-08-02 17:02:00,74.0,60.1,29.89,SW,218,3.0,12.0,62,0.00,,,0.00,WeatherCatV1.20B785,2013-08-02 21:02:00,
2013-08-02 17:05:00,73.9,59.1,29.89,SW,218,3.0,10.0,60,0.00,,,0.00,WeatherCatV1.20B785,2013-08-02 21:05:00,
2013-08-02 17:07:00,74.0,60.1,29.89,WNW,293,2.0,7.0,62,0.00,,,0.00,WeatherCatV1.20B785,2013-08-02 21:07:00,
2013-08-02 17:10:00,74.2,59.9,29.89,SW,226,4.0,7.0,61,0.00,,,0.00,WeatherCatV1.20B785,2013-08-02 21:10:00,
2013-08-02 17:12:00,74.3,60.0,29.89,ESE,106,1.0,9.0,61,0.00,,,0.00,WeatherCatV1.20B785,2013-08-02 21:12:00,
2013-08-02 17:15:00,74.1,59.3,29.89,SW,232,4.0,8.0,60,0.00,,,0.00,WeatherCatV1.20B785,2013-08-02 21:15:00,
2013-08-02 17:17:00,73.9,59.1,29.89,West,273,4.0,12.0,60,0.00,,,0.00,WeatherCatV1.20B785,2013-08-02 21:17:00,
2013-08-02 17:20:00,73.7,58.9,29.89,WSW,240,5.0,9.0,60,0.00,,,0.00,WeatherCatV1.20B785,2013-08-02 21:20:00,
2013-08-02 17:22:00,73.7,59.4,29.89,South,190,1.0,8.0,61,0.00,,,0.00,WeatherCatV1.20B785,2013-08-02 21:22:00,
2013-08-02 17:25:00,73.9,59.6,29.89,SW,217,4.0,8.0,61,0.00,,,0.00,WeatherCatV1.20B785,2013-08-02 21:25:00,
2013-08-02 17:27:00,74.1,59.8,29.88,NW,312,1.0,4.0,61,0.00,,,0.00,WeatherCatV1.20B785,2013-08-02 21:27:00,
2013-08-02 17:30:00,73.9,60.0,29.88,WSW,239,3.0,3.0,62,0.00,,,0.00,WeatherCatV1.20B785,2013-08-02 21:30:00,
2013-08-02 17:32:00,73.9,60.0,29.88,West,260,0.0,3.0,62,0.00,,,0.00,WeatherCatV1.20B785,2013-08-02 21:32:00,
2013-08-02 17:35:00,74.1,59.8,29.88,WSW,241,2.0,7.0,61,0.00,,,0.00,WeatherCatV1.20B785,2013-08-02 21:35:00,
2013-08-02 17:37:00,74.0,60.1,29.88,South,170,0.0,4.0,62,0.00,,,0.00,WeatherCatV1.20B785,2013-08-02 21:37:00,
2013-08-02 17:40:00,73.9,59.6,29.88,SW,233,2.0,5.0,61,0.00,,,0.00,WeatherCatV1.20B785,2013-08-02 21:40:00,
2013-08-02 17:42:00,73.7,59.4,29.88,WSW,240,2.0,5.0,61,0.00,,,0.00,WeatherCatV1.20B785,2013-08-02 21:42:00,
2013-08-02 17:45:00,73.5,59.7,29.88,SW,226,2.0,3.0,62,0.00,,,0.00,WeatherCatV1.20B785,2013-08-02 21:45:00,
2013-08-02 17:47:00,73.4,59.6,29.88,SE,135,3.0,5.0,62,0.00,,,0.00,WeatherCatV1.20B785,2013-08-02 21:47:00,
2013-08-02 17:50:00,73.3,59.0,29.88,SW,235,2.0,4.0,61,0.00,,,0.00,WeatherCatV1.20B785,2013-08-02 21:50:00,
2013-08-02 17:52:00,72.9,59.1,29.88,WSW,256,2.0,3.0,62,0.00,,,0.00,WeatherCatV1.20B785,2013-08-02 21:52:00,
2013-08-02 17:55:00,72.6,58.4,29.88,WSW,249,3.0,7.0,61,0.00,,,0.00,WeatherCatV1.20B785,2013-08-02 21:55:00,
2013-08-02 17:57:00,72.5,59.2,29.88,WSW,257,0.0,5.0,63,0.00,,,0.00,WeatherCatV1.20B785,2013-08-02 21:57:00,
2013-08-02 18:00:00,72.3,58.1,29.88,WSW,245,3.0,3.0,61,0.00,,,0.00,WeatherCatV1.20B785,2013-08-02 22:00:00,
2013-08-02 18:02:00,72.2,58.9,29.88,West,267,0.0,5.0,63,0.00,,,0.00,WeatherCatV1.20B785,2013-08-02 22:02:00,
2013-08-02 18:05:00,71.9,58.2,29.88,WSW,240,2.0,2.0,62,0.00,,,0.00,WeatherCatV1.20B785,2013-08-02 22:05:00,
2013-08-02 18:07:00,71.8,58.5,29.87,WSW,257,4.0,4.0,63,0.00,,,0.00,WeatherCatV1.20B785,2013-08-02 22:07:00,
2013-08-02 18:10:00,71.8,58.1,29.87,SW,224,2.0,4.0,62,0.00,,,0.00,WeatherCatV1.20B785,2013-08-02 22:10:00,
2013-08-02 18:12:00,71.7,58.4,29.87,West,266,1.0,7.0,63,0.00,,,0.00,WeatherCatV1.20B785,2013-08-02 22:12:00,
2013-08-02 18:15:00,71.5,58.7,29.87,SW,226,2.0,6.0,64,0.00,,,0.00,WeatherCatV1.20B785,2013-08-02 22:15:00,
2013-08-02 18:17:00,71.3,58.5,29.87,WSW,256,5.0,5.0,64,0.00,,,0.00,WeatherCatV1.20B785,2013-08-02 22:17:00,
2013-08-02 18:20:00,71.1,58.3,29.87,WSW,239,2.0,4.0,64,0.00,,,0.00,WeatherCatV1.20B785,2013-08-02 22:20:00,
2013-08-02 18:22:00,70.8,58.0,29.87,SW,224,2.0,7.0,64,0.00,,,0.00,WeatherCatV1.20B785,2013-08-02 22:22:00,
2013-08-02 18:25:00,70.7,58.3,29.87,WSW,243,3.0,8.0,65,0.00,,,0.00,WeatherCatV1.20B785,2013-08-02 22:25:00,
2013-08-02 18:27:00,70.5,58.2,29.87,WNW,283,5.0,7.0,65,0.00,,,0.00,WeatherCatV1.20B785,2013-08-02 22:27:00,
2013-08-02 18:30:00,70.4,58.1,29.87,WSW,240,3.0,5.0,65,0.00,,,0.00,WeatherCatV1.20B785,2013-08-02 22:30:00,
2013-08-02 18:32:00,70.3,58.4,29.87,SSW,205,3.0,5.0,66,0.00,,,0.00,WeatherCatV1.20B785,2013-08-02 22:32:00,
2013-08-02 18:35:00,70.2,58.3,29.87,SW,229,2.0,5.0,66,0.00,,,0.00,WeatherCatV1.20B785,2013-08-02 22:35:00,
2013-08-02 18:37:00,70.1,58.2,29.87,West,269,1.0,5.0,66,0.00,,,0.00,WeatherCatV1.20B785,2013-08-02 22:37:00,
2013-08-02 18:40:00,70.1,58.6,29.87,SW,236,2.0,3.0,67,0.00,,,0.00,WeatherCatV1.20B785,2013-08-02 22:40:00,
2013-08-02 18:42:00,70.1,58.6,29.87,West,281,0.0,1.0,67,0.00,,,0.00,WeatherCatV1.20B785,2013-08-02 22:42:00,
2013-08-02 18:45:00,70.1,58.6,29.87,WSW,239,1.0,2.0,67,0.00,,,0.00,WeatherCatV1.20B785,2013-08-02 22:45:00,
2013-08-02 18:47:00,70.1,59.0,29.87,SSW,197,0.0,2.0,68,0.00,,,0.00,WeatherCatV1.20B785,2013-08-02 22:47:00,
2013-08-02 18:50:00,70.1,59.0,29.87,SW,229,1.0,0.0,68,0.00,,,0.00,WeatherCatV1.20B785,2013-08-02 22:50:00,
2013-08-02 18:52:00,70.1,59.8,29.87,SSW,197,0.0,0.0,70,0.00,,,0.00,WeatherCatV1.20B785,2013-08-02 22:52:00,
2013-08-02 18:55:00,70.1,59.0,29.87,SSW,205,0.0,0.0,68,0.00,,,0.00,WeatherCatV1.20B785,2013-08-02 22:55:00,
2013-08-02 18:57:00,70.0,59.3,29.86,SSW,211,1.0,1.0,69,0.00,,,0.00,WeatherCatV1.20B785,2013-08-02 22:57:00,
2013-08-02 19:00:00,69.9,58.8,29.86,SSW,211,0.0,1.0,68,0.00,,,0.00,WeatherCatV1.20B785,2013-08-02 23:00:00,
2013-08-02 19:02:00,69.7,59.1,29.86,SW,225,0.0,4.0,69,0.00,,,0.00,WeatherCatV1.20B785,2013-08-02 23:02:00,
2013-08-02 19:05:00,69.7,59.0,29.87,SW,219,0.0,0.0,69,0.00,,,0.00,WeatherCatV1.20B785,2013-08-02 23:05:00,
2013-08-02 19:07:00,69.6,59.0,29.86,South,191,0.0,0.0,69,0.00,,,0.00,WeatherCatV1.20B785,2013-08-02 23:07:00,
2013-08-02 19:10:00,69.5,58.9,29.86,SSW,206,1.0,3.0,69,0.00,,,0.00,WeatherCatV1.20B785,2013-08-02 23:10:00,
2013-08-02 19:12:00,69.4,58.8,29.86,SSW,208,1.0,2.0,69,0.00,,,0.00,WeatherCatV1.20B785,2013-08-02 23:12:00,
2013-08-02 19:15:00,69.4,58.8,29.87,SSW,209,1.0,2.0,69,0.00,,,0.00,WeatherCatV1.20B785,2013-08-02 23:15:00,
2013-08-02 19:17:00,69.3,58.7,29.87,SW,217,0.0,3.0,69,0.00,,,0.00,WeatherCatV1.20B785,2013-08-02 23:17:00,
2013-08-02 19:20:00,69.2,59.0,29.87,SSW,211,1.0,1.0,70,0.00,,,0.00,WeatherCatV1.20B785,2013-08-02 23:20:00,
2013-08-02 19:22:00,69.1,59.7,29.87,SW,217,0.0,2.0,72,0.00,,,0.00,WeatherCatV1.20B785,2013-08-02 23:22:00,
2013-08-02 19:25:00,69.1,59.3,29.87,SSW,199,0.0,0.0,71,0.00,,,0.00,WeatherCatV1.20B785,2013-08-02 23:25:00,
2013-08-02 19:27:00,69.0,59.2,29.87,SSW,193,0.0,1.0,71,0.00,,,0.00,WeatherCatV1.20B785,2013-08-02 23:27:00,
2013-08-02 19:30:00,69.0,59.2,29.87,SSW,199,0.0,1.0,71,0.00,,,0.00,WeatherCatV1.20B785,2013-08-02 23:30:00,
2013-08-02 19:32:00,68.9,59.9,29.87,SW,224,1.0,1.0,73,0.00,,,0.00,WeatherCatV1.20B785,2013-08-02 23:32:00,
2013-08-02 19:35:00,68.8,59.4,29.87,SSW,207,0.0,2.0,72,0.00,,,0.00,WeatherCatV1.20B785,2013-08-02 23:35:00,
2013-08-02 19:37:00,68.7,59.3,29.88,SSW,213,2.0,2.0,72,0.00,,,0.00,WeatherCatV1.20B785,2013-08-02 23:37:00,
2013-08-02 19:40:00,68.7,59.3,29.88,SSW,207,0.0,2.0,72,0.00,,,0.00,WeatherCatV1.20B785,2013-08-02 23:40:00,
2013-08-02 19:42:00,68.7,59.3,29.88,SSW,198,0.0,2.0,72,0.00,,,0.00,WeatherCatV1.20B785,2013-08-02 23:42:00,
2013-08-02 19:45:00,68.7,59.3,29.88,SSW,206,1.0,5.0,72,0.00,,,0.00,WeatherCatV1.20B785,2013-08-02 23:45:00,
2013-08-02 19:47:00,68.7,58.5,29.88,SSW,193,3.0,5.0,70,0.00,,,0.00,WeatherCatV1.20B785,2013-08-02 23:47:00,
2013-08-02 19:50:00,68.7,58.5,29.88,SSW,205,1.0,5.0,70,0.00,,,0.00,WeatherCatV1.20B785,2013-08-02 23:50:00,
2013-08-02 19:52:00,68.8,58.2,29.88,WSW,250,1.0,4.0,69,0.00,,,0.00,WeatherCatV1.20B785,2013-08-02 23:52:00,
2013-08-02 19:55:00,68.8,58.2,29.88,SW,218,2.0,4.0,69,0.00,,,0.00,WeatherCatV1.20B785,2013-08-02 23:55:00,
2013-08-02 19:57:00,68.9,57.9,29.88,WSW,245,1.0,7.0,68,0.00,,,0.00,WeatherCatV1.20B785,2013-08-02 23:57:00,
2013-08-02 20:00:00,68.9,57.9,29.88,SW,215,2.0,4.0,68,0.00,,,0.00,WeatherCatV1.20B785,2013-08-03 00:00:00,
2013-08-02 20:02:00,68.9,57.5,29.88,SW,222,0.0,2.0,67,0.00,,,0.00,WeatherCatV1.20B785,2013-08-03 00:02:00,
2013-08-02 20:05:00,68.9,57.9,29.87,SW,217,2.0,2.0,68,0.00,,,0.00,WeatherCatV1.20B785,2013-08-03 00:05:00,
2013-08-02 20:07:00,68.9,57.9,29.87,SSE,165,1.0,3.0,68,0.00,,,0.00,WeatherCatV1.20B785,2013-08-03 00:07:00,
2013-08-02 20:10:00,68.9,57.9,29.87,SSW,206,2.0,3.0,68,0.00,,,0.00,WeatherCatV1.20B785,2013-08-03 00:10:00,
2013-08-02 20:12:00,68.8,57.8,29.87,SW,214,4.0,4.0,68,0.00,,,0.00,WeatherCatV1.20B785,2013-08-03 00:12:00,
2013-08-02 20:15:00,68.8,57.8,29.87,SSW,199,2.0,4.0,68,0.00,,,0.00,WeatherCatV1.20B785,2013-08-03 00:15:00,
2013-08-02 20:17:00,68.7,57.7,29.87,SSW,201,1.0,5.0,68,0.00,,,0.00,WeatherCatV1.20B785,2013-08-03 00:17:00,
2013-08-02 20:20:00,68.7,57.7,29.87,SSW,197,2.0,2.0,68,0.00,,,0.00,WeatherCatV1.20B785,2013-08-03 00:20:00,
2013-08-02 20:22:00,68.6,57.6,29.86,SSE,160,3.0,3.0,68,0.00,,,0.00,WeatherCatV1.20B785,2013-08-03 00:22:00,
2013-08-02 20:25:00,68.6,58.0,29.86,South,186,2.0,2.0,69,0.00,,,0.00,WeatherCatV1.20B785,2013-08-03 00:25:00,
2013-08-02 20:27:00,68.6,57.6,29.86,SSW,211,1.0,2.0,68,0.00,,,0.00,WeatherCatV1.20B785,2013-08-03 00:27:00,
2013-08-02 20:30:00,68.5,57.9,29.86,South,184,1.0,3.0,69,0.00,,,0.00,WeatherCatV1.20B785,2013-08-03 00:30:00,
2013-08-02 20:32:00,68.4,57.8,29.87,SSW,204,1.0,5.0,69,0.00,,,0.00,WeatherCatV1.20B785,2013-08-03 00:32:00,
2013-08-02 20:35:00,68.4,57.8,29.86,SSW,205,2.0,2.0,69,0.00,,,0.00,WeatherCatV1.20B785,2013-08-03 00:35:00,
2013-08-02 20:37:00,68.4,57.8,29.87,SSW,208,1.0,1.0,69,0.00,,,0.00,WeatherCatV1.20B785,2013-08-03 00:37:00,
2013-08-02 20:40:00,68.3,57.7,29.86,SSW,193,1.0,3.0,69,0.00,,,0.00,WeatherCatV1.20B785,2013-08-03 00:40:00,
2013-08-02 20:42:00,68.3,58.1,29.86,SSE,160,1.0,2.0,70,0.00,,,0.00,WeatherCatV1.20B785,2013-08-03 00:42:00,
2013-08-02 20:45:00,68.1,58.3,29.86,SSW,198,1.0,3.0,71,0.00,,,0.00,WeatherCatV1.20B785,2013-08-03 00:45:00,
2013-08-02 20:47:00,68.1,58.3,29.86,SSE,167,2.0,3.0,71,0.00,,,0.00,WeatherCatV1.20B785,2013-08-03 00:47:00,
2013-08-02 20:50:00,68.1,57.9,29.86,South,189,2.0,3.0,70,0.00,,,0.00,WeatherCatV1.20B785,2013-08-03 00:50:00,
2013-08-02 20:52:00,68.0,57.8,29.86,SSW,208,2.0,3.0,70,0.00,,,0.00,WeatherCatV1.20B785,2013-08-03 00:52:00,
2013-08-02 20:55:00,68.0,58.2,29.86,South,188,2.0,4.0,71,0.00,,,0.00,WeatherCatV1.20B785,2013-08-03 00:55:00,
2013-08-02 20:57:00,68.0,58.2,29.86,South,170,1.0,3.0,71,0.00,,,0.00,WeatherCatV1.20B785,2013-08-03 00:57:00,
2013-08-02 21:00:00,68.0,58.2,29.86,South,186,2.0,3.0,71,0.00,,,0.00,WeatherCatV1.20B785,2013-08-03 01:00:00,
2013-08-02 21:02:00,68.0,58.2,29.86,SSW,193,2.0,3.0,71,0.00,,,0.00,WeatherCatV1.20B785,2013-08-03 01:02:00,
2013-08-02 21:05:00,68.0,58.2,29.86,SSW,194,2.0,2.0,71,0.00,,,0.00,WeatherCatV1.20B785,2013-08-03 01:05:00,
2013-08-02 21:07:00,67.9,58.1,29.86,SSW,208,0.0,3.0,71,0.00,,,0.00,WeatherCatV1.20B785,2013-08-03 01:07:00,
2013-08-02 21:10:00,67.9,58.5,29.86,SSW,192,2.0,2.0,72,0.00,,,0.00,WeatherCatV1.20B785,2013-08-03 01:10:00,
2013-08-02 21:12:00,67.9,58.5,29.86,SSE,162,2.0,3.0,72,0.00,,,0.00,WeatherCatV1.20B785,2013-08-03 01:12:00,
2013-08-02 21:15:00,67.9,58.5,29.86,SSW,202,2.0,2.0,72,0.00,,,0.00,WeatherCatV1.20B785,2013-08-03 01:15:00,
2013-08-02 21:17:00,67.9,58.5,29.86,South,188,0.0,4.0,72,0.00,,,0.00,WeatherCatV1.20B785,2013-08-03 01:17:00,
2013-08-02 21:20:00,67.8,58.4,29.86,South,179,1.0,2.0,72,0.00,,,0.00,WeatherCatV1.20B785,2013-08-03 01:20:00,
2013-08-02 21:22:00,67.8,58.4,29.86,SSE,166,3.0,4.0,72,0.00,,,0.00,WeatherCatV1.20B785,2013-08-03 01:22:00,
2013-08-02 21:25:00,67.7,58.3,29.87,South,184,1.0,4.0,72,0.00,,,0.00,WeatherCatV1.20B785,2013-08-03 01:25:00,
2013-08-02 21:27:00,67.7,58.3,29.87,SW,217,1.0,2.0,72,0.00,,,0.00,WeatherCatV1.20B785,2013-08-03 01:27:00,
2013-08-02 21:30:00,67.6,59.0,29.87,SSW,199,2.0,2.0,74,0.00,,,0.00,WeatherCatV1.20B785,2013-08-03 01:30:00,
2013-08-02 21:32:00,67.5,58.9,29.87,SW,217,0.0,1.0,74,0.00,,,0.00,WeatherCatV1.20B785,2013-08-03 01:32:00,
2013-08-02 21:35:00,67.2,59.0,29.87,SSW,212,1.0,0.0,75,0.00,,,0.00,WeatherCatV1.20B785,2013-08-03 01:35:00,
2013-08-02 21:36:00,67.1,58.5,29.87,SW,217,0.0,0.0,74,0.00,,,0.00,WeatherCatV1.20B785,2013-08-03 01:36:00,
2013-08-02 21:40:00,67.0,58.4,29.87,SSW,208,0.0,3.0,74,0.00,,,0.00,WeatherCatV1.20B785,2013-08-03 01:40:00,
2013-08-02 21:41:00,67.0,58.8,29.87,South,169,2.0,3.0,75,0.00,,,0.00,WeatherCatV1.20B785,2013-08-03 01:41:00,
2013-08-02 21:45:00,67.2,58.6,29.87,SSW,201,1.0,7.0,74,0.00,,,0.00,WeatherCatV1.20B785,2013-08-03 01:45:00,
2013-08-02 21:46:00,67.3,59.1,29.87,WSW,250,0.0,1.0,75,0.00,,,0.00,WeatherCatV1.20B785,2013-08-03 01:46:00,
2013-08-02 21:50:00,67.2,59.4,29.87,SW,236,1.0,0.0,76,0.00,,,0.00,WeatherCatV1.20B785,2013-08-03 01:50:00,
2013-08-02 21:51:00,67.2,59.0,29.87,WSW,250,0.0,0.0,75,0.00,,,0.00,WeatherCatV1.20B785,2013-08-03 01:51:00,
2013-08-02 21:55:00,67.0,59.2,29.87,WSW,246,0.0,1.0,76,0.00,,,0.00,WeatherCatV1.20B785,2013-08-03 01:55:00,
2013-08-02 21:56:00,67.0,59.2,29.87,South,174,0.0,0.0,76,0.00,,,0.00,WeatherCatV1.20B785,2013-08-03 01:56:00,
2013-08-02 22:00:00,66.8,59.3,29.87,SSW,204,0.0,1.0,77,0.00,,,0.00,WeatherCatV1.20B785,2013-08-03 02:00:00,
2013-08-02 22:01:00,66.8,59.0,29.87,SSW,208,5.0,6.0,76,0.00,,,0.00,WeatherCatV1.20B785,2013-08-03 02:01:00,
2013-08-02 22:05:00,67.0,59.2,29.87,SW,218,1.0,3.0,76,0.00,,,0.00,WeatherCatV1.20B785,2013-08-03 02:05:00,
2013-08-02 22:06:00,67.1,59.3,29.88,SSW,205,1.0,3.0,76,0.00,,,0.00,WeatherCatV1.20B785,2013-08-03 02:06:00,
2013-08-02 22:10:00,67.3,59.5,29.88,SW,227,2.0,2.0,76,0.00,,,0.00,WeatherCatV1.20B785,2013-08-03 02:10:00,
2013-08-02 22:11:00,67.3,59.5,29.88,West,281,1.0,2.0,76,0.00,,,0.00,WeatherCatV1.20B785,2013-08-03 02:11:00,
2013-08-02 22:15:00,67.5,60.0,29.87,SW,221,2.0,4.0,77,0.00,,,0.00,WeatherCatV1.20B785,2013-08-03 02:15:00,
2013-08-02 22:16:00,67.5,60.0,29.87,WSW,243,0.0,3.0,77,0.00,,,0.00,WeatherCatV1.20B785,2013-08-03 02:16:00,
2013-08-02 22:20:00,67.4,59.9,29.87,SSW,210,2.0,5.0,77,0.00,,,0.00,WeatherCatV1.20B785,2013-08-03 02:20:00,
2013-08-02 22:22:00,67.3,60.2,29.88,WSW,255,0.0,5.0,78,0.00,,,0.00,WeatherCatV1.20B785,2013-08-03 02:22:00,
2013-08-02 22:25:00,67.2,60.1,29.88,SW,229,2.0,2.0,78,0.00,,,0.00,WeatherCatV1.20B785,2013-08-03 02:25:00,
2013-08-02 22:28:00,67.1,60.4,29.88,SW,219,0.0,4.0,79,0.00,,,0.00,WeatherCatV1.20B785,2013-08-03 02:28:00,
2013-08-02 22:30:00,67.0,60.3,29.88,WSW,244,1.0,5.0,79,0.00,,,0.00,WeatherCatV1.20B785,2013-08-03 02:30:00,
2013-08-02 22:33:00,67.0,60.3,29.88,SW,226,2.0,2.0,79,0.00,,,0.00,WeatherCatV1.20B785,2013-08-03 02:33:00,
2013-08-02 22:35:00,67.1,60.4,29.88,WSW,257,1.0,4.0,79,0.00,,,0.00,WeatherCatV1.20B785,2013-08-03 02:35:00,
2013-08-02 22:38:00,67.1,60.4,29.88,WSW,256,0.0,2.0,79,0.00,,,0.00,WeatherCatV1.20B785,2013-08-03 02:38:00,
2013-08-02 22:40:00,67.2,60.8,29.88,WSW,246,2.0,6.0,80,0.00,,,0.00,WeatherCatV1.20B785,2013-08-03 02:40:00,
2013-08-02 22:43:00,67.2,60.5,29.88,WNW,287,1.0,3.0,79,0.00,,,0.00,WeatherCatV1.20B785,2013-08-03 02:43:00,
2013-08-02 22:45:00,67.2,60.5,29.88,West,262,2.0,8.0,79,0.00,,,0.00,WeatherCatV1.20B785,2013-08-03 02:45:00,
2013-08-02 22:48:00,67.3,60.9,29.88,SSE,167,2.0,5.0,80,0.00,,,0.00,WeatherCatV1.20B785,2013-08-03 02:48:00,
2013-08-02 22:50:00,67.3,60.9,29.88,West,259,2.0,5.0,80,0.00,,,0.00,WeatherCatV1.20B785,2013-08-03 02:50:00,
2013-08-02 22:53:00,67.3,60.9,29.88,West,278,5.0,5.0,80,0.00,,,0.00,WeatherCatV1.20B785,2013-08-03 02:53:00,
2013-08-02 22:55:00,67.3,60.9,29.88,WSW,250,1.0,5.0,80,0.00,,,0.00,WeatherCatV1.20B785,2013-08-03 02:55:00,
2013-08-02 22:59:00,67.3,61.3,29.88,WSW,255,0.0,9.0,81,0.00,,,0.01,WeatherCatV1.20B785,2013-08-03 02:59:00,
2013-08-02 23:00:00,67.3,61.3,29.88,West,261,2.0,2.0,81,0.00,,,0.00,WeatherCatV1.20B785,2013-08-03 03:00:00,
2013-08-02 23:04:00,67.1,61.4,29.88,West,281,0.0,2.0,82,0.00,,,0.01,WeatherCatV1.20B785,2013-08-03 03:04:00,
2013-08-02 23:05:00,66.9,61.6,29.88,West,267,1.0,3.0,83,0.00,,,0.00,WeatherCatV1.20B785,2013-08-03 03:05:00,
2013-08-02 23:09:00,66.7,61.4,29.88,West,263,1.0,4.0,83,0.00,,,0.01,WeatherCatV1.20B785,2013-08-03 03:09:00,
2013-08-02 23:10:00,66.6,61.6,29.88,West,269,1.0,4.0,84,0.00,,,0.00,WeatherCatV1.20B785,2013-08-03 03:10:00,
2013-08-02 23:14:00,66.5,61.5,29.88,West,280,0.0,2.0,84,0.00,,,0.01,WeatherCatV1.20B785,2013-08-03 03:14:00,
2013-08-02 23:15:00,66.4,61.4,29.88,West,262,1.0,3.0,84,0.00,,,0.00,WeatherCatV1.20B785,2013-08-03 03:15:00,
2013-08-02 23:19:00,66.5,61.5,29.88,West,269,0.0,0.0,84,0.00,,,0.01,WeatherCatV1.20B785,2013-08-03 03:19:00,
2013-08-02 23:20:00,66.6,61.9,29.88,West,267,2.0,7.0,85,0.00,,,0.00,WeatherCatV1.20B785,2013-08-03 03:20:00,
2013-08-02 23:24:00,66.6,61.9,29.87,WSW,256,1.0,1.0,85,0.00,,,0.01,WeatherCatV1.20B785,2013-08-03 03:24:00,
2013-08-02 23:25:00,66.6,61.9,29.87,WSW,258,2.0,3.0,85,0.00,,,0.00,WeatherCatV1.20B785,2013-08-03 03:25:00,
2013-08-02 23:29:00,66.6,61.9,29.88,West,280,2.0,4.0,85,0.00,,,0.01,WeatherCatV1.20B785,2013-08-03 03:29:00,
2013-08-02 23:30:00,66.6,61.9,29.87,WSW,251,2.0,3.0,85,0.00,,,0.00,WeatherCatV1.20B785,2013-08-03 03:30:00,
2013-08-02 23:34:00,66.6,62.3,29.88,WNW,300,0.0,8.0,86,0.00,,,0.01,WeatherCatV1.20B785,2013-08-03 03:34:00,
2013-08-02 23:35:00,66.6,62.3,29.87,WSW,258,1.0,4.0,86,0.00,,,0.00,WeatherCatV1.20B785,2013-08-03 03:35:00,
2013-08-02 23:38:00,66.7,62.4,29.87,NNW,329,2.0,3.0,86,0.00,,,0.01,WeatherCatV1.20B785,2013-08-03 03:38:00,
2013-08-02 23:40:00,66.7,62.4,29.87,West,260,2.0,4.0,86,0.00,,,0.00,WeatherCatV1.20B785,2013-08-03 03:40:00,
2013-08-02 23:44:00,66.8,62.5,29.87,West,262,3.0,7.0,86,0.00,,,0.01,WeatherCatV1.20B785,2013-08-03 03:44:00,
2013-08-02 23:45:00,66.8,62.5,29.87,West,263,2.0,7.0,86,0.00,,,0.00,WeatherCatV1.20B785,2013-08-03 03:45:00,
2013-08-02 23:49:00,66.9,62.6,29.87,West,263,1.0,2.0,86,0.00,,,0.01,WeatherCatV1.20B785,2013-08-03 03:49:00,
2013-08-02 23:50:00,66.9,62.6,29.87,WSW,237,2.0,4.0,86,0.00,,,0.00,WeatherCatV1.20B785,2013-08-03 03:50:00,
2013-08-02 23:54:00,66.9,62.6,29.87,West,276,1.0,9.0,86,0.00,,,0.01,WeatherCatV1.20B785,2013-08-03 03:54:00,
2013-08-02 23:55:00,66.9,62.6,29.86,WSW,253,2.0,9.0,86,0.00,,,0.00,WeatherCatV1.20B785,2013-08-03 03:55:00,
2013-08-02 23:59:00,66.9,62.9,29.86,ESE,105,0.0,2.0,87,0.00,,,0.01,WeatherCatV1.20B785,2013-08-03 03:59:00,